This demonstration page uses our WeatherBlox Daily Observations layout. Learn more.

Left ArrowRight Arrow

39.92423, -83.80882

Hourly Observations for January 2, 2017

Temp ( °F °C ) Dew Point ( °F °C ) Humidity (%) Winds ( mph kmh ) Pressure ( in mb ) Visibility ( mi km ) Precip ( " mm )
12:56 am 00:56 Cloudy with Light Rain 40 4.4 37 2.8 89 89 E 9 15 30.13 1020 10 16.0934 0 0.0254
1:05 am 01:05 Cloudy with Light Rain 39 4 37 3 93 93 E 10 17 30.12 1020 10 16.0934 0 0.0254
1:45 am 01:45 Cloudy with Light Rain 39 4 37 3 93 93 E 8 13 30.12 1020 2.5 4.02335 0 0.0254
1:54 am 01:54 Cloudy with Light Rain 39 4 37 3 93 93 E 10 17 N/A 2.5 4.02335 0 0.0254
1:56 am 01:56 Cloudy with Light Rain 39 3.9 38 3.3 96 96 E 9 15 30.12 1020 2.5 4.02335 0 0.0254
2:05 am 02:05 Cloudy with Light Rain 39 4 37 3 93 93 E 10 17 30.12 1020 3 4.82802 0 0.0254
2:13 am 02:13 Cloudy with Light Rain 39 4 37 3 93 93 E 12 19 30.12 1020 3 4.82802 0 0.0254
2:20 am 02:20 Cloudy with Light Rain 39 4 37 3 93 93 E 8 13 30.12 1020 2.5 4.02335 0 0.0254
2:56 am 02:56 Cloudy with Light Rain 39 3.9 38 3.3 96 96 E 7 11 30.14 1021 1.75 2.816345 0 0.0254
3:56 am 03:56 Cloudy with Mist and Fog 39 3.9 39 3.9 100 100 E 7 11 30.14 1021 1.75 2.816345 0 0.0254
4:03 am 04:03 Cloudy with Mist and Fog 39 4 39 4 100 100 E 7 11 30.15 1021 2 3.21868 0 0
4:53 am 04:53 Cloudy with Mist and Fog 39 4 39 4 100 100 E 8 13 30.12 1020 1.5 2.41401 0 0
4:56 am 04:56 Cloudy with Mist and Fog 39 3.9 39 3.9 100 100 ESE 7 11 30.13 1020 1.75 2.816345 0 0
5:56 am 05:56 Cloudy with Mist and Fog 40 4.4 39 3.9 97 97 E 5 7 30.13 1020 1.5 2.41401 0 0
6:56 am 06:56 Cloudy with Mist and Fog 40 4.4 39 3.9 97 97 E 3 6 30.14 1021 1.5 2.41401 0 0
7:11 am 07:11 Cloudy with Mist and Fog 39 4 39 4 100 100 ENE 5 7 30.15 1021 1 1.60934 0 0
7:54 am 07:54 Cloudy with Fog 39 4 39 4 100 100 E 6 9 30.15 1021 0.5 0.80467 0 0
7:56 am 07:56 Cloudy with Fog 39 3.9 39 3.9 100 100 E 6 9 30.14 1021 0.5 0.80467 0 0
8:39 am 08:39 Cloudy with Mist and Fog 39 4 39 4 100 100 E 6 9 30.15 1021 0.75 1.207005 0 0
8:47 am 08:47 Cloudy with Mist and Fog 39 4 39 4 100 100 E 7 11 30.15 1021 1 1.60934 0 0
8:56 am 08:56 Cloudy with Mist and Fog 40 4.4 40 4.4 100 100 E 8 13 30.14 1021 0.75 1.207005 0 0
9:15 am 09:15 Cloudy with Fog 39 4 39 4 100 100 ESE 7 11 30.15 1021 0.5 0.80467 0 0
9:45 am 09:45 Cloudy with Mist and Fog 41 5 41 5 100 100 E 6 9 30.15 1021 0.75 1.207005 0 0
9:56 am 09:56 Cloudy with Mist and Fog 41 5 41 5 100 100 E 6 9 30.16 1021 0.75 1.207005 0 0
10:56 am 10:56 Cloudy with Mist and Fog 43 6.1 43 6.1 100 100 ESE 5 7 30.19 1022 1 1.60934 0 0
11:07 am 11:07 Cloudy with Mist and Fog 43 6 43 6 100 100 ESE 5 7 30.18 1022 1.5 2.41401 0 0
11:33 am 11:33 Cloudy with Mist and Fog 45 7 43 6 93 93 SE 6 9 30.18 1022 2.5 4.02335 0 0
11:49 am 11:49 Cloudy with Mist and Fog 45 7 45 7 100 100 ESE 6 9 30.15 1021 1.75 2.816345 0 0
11:56 am 11:56 Cloudy with Mist and Fog 45 7.2 44 6.7 97 97 ESE 5 7 30.16 1021 1.75 2.816345 0 0
12:46 pm 12:46 Cloudy with Mist and Fog 46 8 45 7 93 93 ESE 5 7 30.15 1021 3 4.82802 0 0
12:56 pm 12:56 Cloudy with Mist and Fog 46 7.8 45 7.2 96 96 ESE 6 9 30.11 1020 2.5 4.02335 0 0
1:14 pm 13:14 Cloudy with Mist and Fog 46 8 45 7 93 93 SSE 3 6 30.12 1020 3 4.82802 0 0
1:56 pm 13:56 Cloudy with Mist and Fog 47 8.3 46 7.8 97 97 E 7 11 30.09 1019 4 6.43736 0 0
2:56 pm 14:56 Cloudy with Mist and Fog 49 9.4 48 8.9 97 97 ESE 8 13 30.05 1018 5 8.0467 0 0
3:03 pm 15:03 Cloudy with Mist and Fog 48 9 48 9 100 100 E 8 13 30.06 1018 6 9.65604 0 0
3:56 pm 15:56 Cloudy with Mist and Fog 49 9.4 48 8.9 97 97 E 9 15 30.06 1018 6 9.65604 0 0
4:56 pm 16:56 Cloudy with Mist and Fog 48 8.9 47 8.3 96 96 ESE 9 15 30.05 1018 4 6.43736 0 0
5:20 pm 17:20 Cloudy with Mist and Fog 48 9 46 8 94 94 E 10 17 30.03 1017 2.5 4.02335 0 0
5:56 pm 17:56 Cloudy with Mist and Fog 48 8.9 47 8.3 96 96 ESE 10 17 30 1016 3 4.82802 0 0
6:36 pm 18:36 Cloudy with Mist and Fog 48 9 46 8 94 94 SSE 7 11 30.03 1017 2.5 4.02335 0 0
6:46 pm 18:46 Cloudy with Mist and Fog 48 9 46 8 94 94 SSE 6 9 30.03 1017 3 4.82802 0 0
6:56 pm 18:56 Cloudy with Mist and Fog 48 8.9 47 8.3 96 96 SE 6 9 30.01 1016 3 4.82802 0 0
7:15 pm 19:15 Cloudy with Mist and Fog 48 9 46 8 94 94 ESE 7 11 30 1016 2.5 4.02335 0 0
7:27 pm 19:27 Cloudy with Mist and Fog 48 9 46 8 94 94 SE 6 9 30 1016 1.75 2.816345 0 0
7:56 pm 19:56 Cloudy with Light Rain 48 8.9 48 8.9 100 100 E 7 11 29.98 1015 1.25 2.011675 0 0.0254
8:54 pm 20:54 Cloudy with Mist and Fog 48 9 48 9 100 100 ESE 9 15 29.94 1014 2 3.21868 0 0.0254
8:56 pm 20:56 Cloudy with Mist and Fog 49 9.4 49 9.4 100 100 ESE 9 15 29.94 1014 1.75 2.816345 0 0.0254
9:07 pm 21:07 Cloudy with Mist and Fog 50 10 48 9 94 94 ESE 15 24 29.91 1013 2 3.21868 0 0
9:17 pm 21:17 Cloudy with Light Rain 50 10 48 9 94 94 ESE 15 24 29.91 1013 1.5 2.41401 0 0.0254
9:33 pm 21:33 Cloudy with Light Rain 50 10 48 9 94 94 ESE 15 24 29.91 1013 1 1.60934 0 0.0254
9:50 pm 21:50 Cloudy with Fog 50 10 50 10 100 100 SE 8 13 29.91 1013 0.5 0.80467 0 0.0254
9:51 pm 21:51 Cloudy with Fog 50 10 50 10 100 100 SE 8 13 29.93 1014 0.5 0.80467 0 0.0254
10:09 pm 22:09 Cloudy with Fog 50 10 50 10 100 100 SE 9 15 29.91 1013 0.25 0.402335 0 0
10:32 pm 22:32 Cloudy with Fog 50 10 50 10 100 100 SE 10 17 29.91 1013 0.5 0.80467 0 0
10:56 pm 22:56 Cloudy with Fog 50 10 50 10 100 100 SE 13 20 29.91 1013 0.5 0.80467 0 0
11:25 pm 23:25 Cloudy with Mist and Fog 50 10 50 10 100 100 SE 12 19 29.88 1012 0.75 1.207005 0 0
11:38 pm 23:38 Cloudy with Mist and Fog 52 11 50 10 94 94 SE 12 19 29.88 1012 1 1.60934 0 0
11:48 pm 23:48 Cloudy with Mist and Fog 52 11 50 10 94 94 SE 10 17 29.85 1011 1.25 2.011675 0 0
11:56 pm 23:56 Cloudy with Mist and Fog 51 10.6 50 10 96 96 SSE 8 13 29.88 1012 2 3.21868 0 0

Powered by AerisWeather